Theta_e
314 314 314 313 313 313 313 313 312 312 309 313 308 307 307 307 308 308 308 309 310 313 313 312 312 311 311 309 311 312 313 316 317 316 316 314 316 315 318 316 310 310 310 308 308 308 308
314 314 314 314 314 314 313 313 312 311 307 308 307 306 307 307 308 308 308 309 309 310 311 309 309 309 310 311 310 311 313 315 315 315 313 312 314 313 312 310 311 309 309 309 308 307 307
314 314 314 314 314 314 314 313 314 311 308 306 307 306 306 307 307 308 309 309 309 310 309 309 310 309 307 309 310 311 314 314 315 315 313 311 310 311 309 309 307 308 310 309 308 308 308
313 313 313 313 313 313 313 313 313 313 311 306 307 307 306 306 307 309 309 309 308 309 309 309 310 310 309 311 312 313 313 313 313 314 312 311 310 309 308 307 307 309 308 312 309 308 308
312 312 312 312 312 313 313 313 312 313 311 307 306 306 307 307 309 309 309 309 309 309 309 309 310 310 312 311 312 312 311 311 311 312 315 311 309 307 307 308 308 306 309 311 312 309 309
311 311 310 311 312 312 313 312 312 312 311 305 305 305 307 307 309 309 309 309 310 309 309 309 309 312 310 312 311 310 310 310 310 312 314 310 305 306 304 307 312 311 308 309 311 310 309
311 311 310 310 311 312 313 312 312 311 310 304 304 305 308 307 309 309 309 309 306 305 307 308 309 310 310 309 310 309 311 313 315 314 313 306 306 306 307 307 307 307 308 310 310 309 310
310 310 310 311 310 311 312 312 312 311 306 304 304 307 308 308 308 308 307 305 306 308 308 306 308 308 309 309 313 312 312 313 315 316 307 307 309 309 307 308 307 307 308 310 309 308 307
309 310 310 310 310 309 309 310 310 311 304 304 304 306 307 308 307 309 307 307 307 308 305 307 306 309 309 309 312 313 310 309 310 310 309 309 310 309 308 308 309 308 307 308 308 309 306
308 309 308 309 309 308 308 309 309 308 304 304 306 307 308 307 307 307 307 307 306 307 304 306 308 309 308 308 308 308 309 309 309 310 309 309 307 309 309 310 308 310 309 308 307 304 305
309 309 308 308 308 308 308 308 309 308 305 304 308 307 308 308 308 306 307 307 306 304 305 306 308 309 306 308 308 308 308 309 310 310 308 311 310 308 310 310 308 311 308 308 307 305 304
308 308 305 306 307 308 308 308 309 309 306 305 307 306 308 308 307 307 307 306 305 304 303 306 307 309 308 307 307 308 308 306 308 306 308 309 308 309 310 309 308 307 307 304 303 302 302
306 305 304 306 307 308 308 308 309 309 307 306 306 308 307 309 307 307 307 305 306 304 304 309 310 309 308 308 308 308 308 308 308 304 305 305 307 309 310 309 308 306 303 302 306 304 306
306 306 305 306 306 308 309 309 309 309 307 306 306 309 306 306 306 306 307 303 305 304 308 308 309 308 309 308 307 307 307 307 308 306 303 303 303 310 310 310 309 310 306 303 304 305 304
307 307 306 306 307 308 308 309 309 309 309 306 307 310 307 306 306 309 302 304 303 305 309 310 308 308 308 309 309 307 307 309 309 308 308 307 308 309 311 310 307 310 308 306 306 301 303
308 307 307 307 307 308 308 308 309 309 310 308 308 309 309 306 309 305 303 307 308 306 310 310 310 308 310 308 309 308 307 308 309 307 307 309 307 309 310 309 309 309 305 305 304 306 307
308 307 307 308 308 308 308 308 308 309 310 308 309 303 308 308 306 302 303 303 308 308 309 310 311 310 309 309 308 309 310 309 308 308 306 308 305 309 308 308 309 310 310 308 305 306 308
308 307 307 307 308 308 308 307 308 308 309 308 303 305 308 308 304 300 306 309 309 309 308 309 309 309 309 307 309 311 311 310 307 308 309 308 306 305 308 308 308 308 309 307 307 308 305
307 307 307 307 308 308 308 307 307 308 309 309 306 306 305 304 303 304 308 309 309 309 309 309 309 308 307 307 307 309 309 308 307 307 309 307 305 305 306 305 307 311 310 307 304 306 309
308 307 307 307 308 308 308 308 307 308 309 308 302 307 305 300 299 305 308 309 308 307 308 308 308 307 307 307 305 306 307 309 308 308 309 304 304 305 303 304 306 311 309 308 308 306 306
308 308 307 307 308 308 308 308 307 308 308 307 300 302 303 304 305 305 305 306 309 309 307 306 307 307 307 307 305 306 308 307 308 309 306 301 301 301 304 303 304 306 307 308 309 308 309
309 308 307 307 308 307 308 308 307 307 308 306 303 304 300 302 303 306 304 306 307 307 308 308 308 307 306 306 304 304 305 306 306 308 306 303 302 304 304 304 303 304 303 302 304 307 307
310 309 308 307 307 307 307 308 308 307 309 305 302 302 303 303 304 306 306 306 307 306 307 306 306 306 306 306 305 304 302 302 304 307 306 306 303 304 304 303 303 304 301 303 303 302 304
312 311 309 307 307 307 307 307 308 307 307 307 305 303 304 305 305 306 305 305 306 307 308 306 305 306 305 303 303 303 303 304 304 302 303 305 304 304 305 303 305 304 301 301 302 302 301
313 313 312 308 307 308 307 307 308 308 306 308 306 303 303 305 304 306 306 306 305 303 305 304 305 303 301 302 303 303 302 303 303 301 303 302 304 305 306 304 305 304 302 303 303 303 302
313 313 313 312 309 307 307 307 307 308 307 306 307 305 302 304 303 304 304 304 304 304 303 303 302 301 301 302 303 306 307 305 305 305 301 301 301 303 304 306 310 305 303 302 302 304 303
307 310 312 312 313 310 307 307 307 308 307 307 306 307 305 304 302 302 303 304 300 301 303 302 303 303 300 301 305 305 305 302 305 305 304 304 304 305 305 306 305 302 303 301 306 305 302
301 303 306 309 312 312 311 308 307 307 308 307 307 307 306 301 301 303 302 302 301 301 305 302 304 302 301 304 304 304 303 302 301 301 302 304 303 304 304 306 306 302 303 306 302 301 302
297 298 300 303 306 310 312 311 308 307 308 308 307 307 306 305 303 306 306 305 303 303 301 299 303 301 302 301 301 301 304 298 299 305 299 303 302 303 303 304 302 301 303 301 299 300 303
Wind_Speed
16 16 16 16 16 16 16 16 17 17 16 17 16 15 15 17 18 21 23 19 12 10 9 14 12 8 1 5 4 5 5 4 7 10 8 1 4 4 6 4 2 3 3 4 2 5 5
16 17 17 18 18 18 18 17 17 17 15 15 16 15 15 16 18 21 22 18 12 7 7 12 18 5 3 5 9 8 2 4 9 11 3 4 0 3 3 2 1 3 5 3 7 4 5
17 17 18 19 19 20 20 20 19 17 15 13 14 14 15 17 19 19 19 13 7 6 11 13 12 5 9 4 10 6 2 4 5 4 4 4 8 2 2 5 3 3 6 5 9 7 4
17 18 19 19 20 21 22 22 21 18 16 13 12 13 14 15 16 16 13 5 1 4 2 10 11 12 3 15 6 6 4 6 6 7 6 4 10 3 3 3 5 5 6 5 5 7 3
17 18 20 21 21 22 23 24 23 20 16 14 12 12 13 12 14 14 9 5 4 6 4 5 14 8 5 13 4 8 12 5 7 7 6 8 4 3 4 4 5 7 4 4 2 5 1
17 18 19 21 22 23 24 25 25 21 17 11 12 12 11 11 11 11 6 7 11 6 4 7 7 6 4 3 4 3 6 7 4 6 4 4 4 4 4 4 5 5 7 4 3 5 5
17 18 20 21 23 24 26 28 26 22 17 9 9 12 11 9 10 11 16 3 8 5 10 4 2 4 2 2 7 11 11 4 3 5 3 1 6 3 2 1 1 6 6 6 2 4 2
17 18 19 21 23 25 27 28 27 23 16 9 7 10 10 7 7 11 8 6 2 2 3 1 1 1 2 4 7 4 12 1 2 2 2 6 4 3 2 3 5 6 7 3 2 4 2
16 18 20 21 23 26 29 29 27 24 15 10 10 12 11 6 5 5 10 5 2 3 3 6 2 2 2 3 3 5 5 1 1 5 5 7 2 2 4 5 7 5 6 3 4 2 4
16 17 19 20 23 27 29 32 30 24 14 11 14 13 9 4 1 3 3 4 3 2 5 9 8 4 3 1 3 3 3 3 4 4 5 7 6 4 6 5 2 4 2 3 6 4 3
15 16 18 20 22 26 29 31 34 28 14 11 14 13 8 4 2 3 1 4 2 1 5 11 9 7 7 7 4 7 4 5 4 4 5 2 5 7 8 2 1 3 3 4 3 5 4
16 16 18 20 22 25 28 31 33 31 19 9 10 13 6 3 3 2 2 2 1 6 2 8 5 7 7 8 6 6 7 6 2 6 8 4 0 4 2 2 3 6 5 6 4 3 3
17 18 18 19 22 25 27 30 32 32 22 6 8 10 8 5 2 4 2 2 5 6 3 7 4 6 3 6 7 7 5 8 4 5 5 5 4 4 4 4 3 5 6 3 4 4 5
16 18 18 19 21 24 27 29 32 32 21 7 4 8 7 7 4 4 3 5 8 4 4 3 3 4 5 6 5 7 3 5 5 5 3 4 5 6 7 3 3 4 4 5 5 2 4
15 17 17 18 20 23 26 28 31 32 25 8 5 4 4 6 4 4 5 6 6 5 2 4 3 5 6 4 3 5 5 2 2 4 4 3 3 3 4 3 2 3 3 3 7 2 3
14 16 16 17 19 21 24 28 29 31 26 8 3 2 5 4 4 3 5 3 3 4 1 0 3 2 4 7 4 4 4 3 5 4 1 3 4 3 3 1 4 1 6 4 3 2 3
13 15 16 16 18 20 23 27 29 30 26 8 1 3 6 3 3 5 4 3 3 3 2 3 2 1 2 2 4 4 2 1 2 5 4 1 2 3 1 2 2 2 2 4 4 3 4
13 14 14 15 16 18 22 26 29 29 25 8 2 3 5 2 4 2 3 2 3 1 2 1 2 3 2 1 2 2 3 2 6 3 2 1 3 2 1 0 1 2 2 3 4 3 2
12 13 14 15 15 17 21 24 27 28 23 6 2 2 4 2 3 2 2 3 3 3 3 4 3 1 1 4 4 1 2 1 4 5 3 2 2 2 5 3 3 2 3 3 4 3 5
12 13 13 15 14 17 20 23 25 25 21 6 2 3 4 4 1 5 2 3 4 3 3 3 3 3 3 3 3 5 4 2 1 2 5 3 3 2 5 3 2 3 3 4 4 3 4
10 10 12 13 13 16 19 22 25 22 16 4 4 1 2 2 3 4 2 3 1 2 1 3 4 3 4 4 6 4 0 2 1 1 2 2 4 5 4 4 2 3 5 5 8 5 6
13 12 10 9 11 14 17 20 23 23 14 6 2 2 2 0 2 1 2 2 3 1 1 1 0 1 2 1 2 4 4 4 3 3 2 2 2 0 3 4 8 6 10 10 7 5 9
13 12 10 8 10 11 13 16 19 22 10 5 3 1 3 2 1 2 2 2 2 2 2 3 3 1 2 2 2 4 5 5 2 2 3 3 3 2 3 4 7 8 6 5 2 4 6
14 13 10 8 8 9 10 12 14 16 16 5 3 2 3 2 1 3 2 2 3 2 1 0 2 3 2 1 1 1 3 2 2 3 3 3 2 2 3 4 1 3 2 3 6 4 6
15 15 13 10 10 9 9 9 10 11 12 7 4 2 3 1 2 3 2 2 2 1 2 2 1 0 0 3 3 3 3 1 2 4 2 2 4 2 1 2 7 1 1 2 3 2 3
14 14 14 14 12 10 10 8 8 7 7 8 4 3 2 3 4 1 2 2 3 2 2 1 1 0 3 2 2 2 4 3 2 1 4 3 4 3 2 1 5 3 1 1 2 4 2
11 10 11 14 14 14 13 11 10 8 7 5 3 3 1 1 3 4 3 4 4 1 2 1 2 1 2 2 2 4 4 3 3 5 4 3 1 4 3 3 7 5 3 1 2 4 5
11 11 13 14 15 15 16 14 13 11 9 6 3 2 1 1 4 4 3 4 2 3 4 2 2 1 2 2 3 3 3 3 1 3 5 6 6 4 3 3 7 5 1 2 5 2 3
10 11 13 13 16 16 17 18 17 16 13 10 5 5 6 3 4 4 7 7 5 4 4 2 2 3 4 3 1 2 2 0 3 3 1 3 5 4 8 6 5 3 3 3 2 4 1
Wind_Direction
28 25 20 14 6 3 357 353 346 343 348 347 353 358 356 354 3 5 11 23 36 71 36 25 27 31 69 46 25 343 336 79 142 118 82 344 147 123 151 177 137 98 142 58 352 82 67
26 24 20 15 10 6 1 355 347 341 341 343 346 351 352 352 353 358 9 22 30 44 50 40 33 3 35 60 343 346 317 158 148 138 158 213 127 305 130 108 104 125 91 89 35 27 45
25 22 18 14 10 7 2 356 350 343 336 335 338 342 339 342 347 357 9 19 40 92 77 33 20 41 62 25 331 349 91 104 189 167 114 40 334 295 137 105 174 130 79 54 16 347 70
21 17 14 10 7 3 1 357 351 345 340 332 334 341 341 339 343 353 4 7 70 156 93 5 23 65 52 4 48 69 56 89 87 157 98 78 345 256 61 114 34 62 49 85 329 348 353
16 11 11 7 4 2 0 358 352 346 341 333 334 343 345 348 346 353 8 21 346 262 270 19 42 80 12 17 37 89 61 41 46 93 156 321 7 71 47 79 51 22 108 89 74 18 25
15 11 8 7 4 2 1 359 355 348 343 333 334 345 351 352 358 357 329 297 328 62 96 99 62 69 227 221 321 48 60 354 28 61 359 12 32 79 41 61 172 142 102 51 115 347 37
12 8 7 7 5 3 2 1 359 354 347 339 342 347 348 352 3 8 32 16 17 350 37 75 187 147 319 117 90 72 74 35 56 82 176 318 72 97 71 31 117 128 110 115 342 349 70
11 8 8 7 7 6 5 4 2 359 2 356 352 351 340 330 345 12 22 72 126 295 344 31 45 338 49 25 110 113 159 74 55 249 136 46 70 329 35 43 91 67 110 69 20 18 81
11 8 6 6 6 11 12 9 6 2 9 6 349 336 335 309 330 359 57 69 3 351 66 332 290 315 27 122 119 196 187 211 331 96 95 100 305 338 115 47 80 45 103 164 152 101 72
9 7 5 3 7 12 11 12 10 3 0 3 355 347 343 330 341 28 47 22 13 26 69 323 344 359 347 137 85 217 183 237 34 69 72 71 337 52 83 76 58 76 319 101 106 79 173
8 6 5 4 8 10 10 10 11 7 356 348 358 0 1 30 95 69 4 354 14 75 50 313 310 310 333 81 297 351 20 49 80 5 99 14 16 41 61 336 22 119 82 95 92 86 74
10 7 8 9 9 9 10 9 11 6 359 346 354 3 2 6 25 37 354 353 14 44 301 334 320 350 6 13 7 330 21 38 152 63 38 85 72 64 49 25 67 152 76 52 63 84 40
11 10 10 11 9 8 9 8 8 5 2 349 359 7 24 13 16 359 345 32 39 87 279 316 328 359 354 356 11 25 38 24 44 64 8 5 5 356 37 73 42 67 56 11 11 8 215
10 9 8 8 8 8 8 7 6 7 4 359 4 19 35 42 14 7 356 50 65 243 260 305 324 335 50 3 12 11 49 34 10 46 82 108 353 5 340 51 148 62 123 145 183 184 261
2 4 5 7 8 7 6 7 4 4 3 353 328 358 35 7 4 358 68 50 181 208 310 341 338 44 344 7 64 66 34 45 340 5 95 116 30 330 36 3 48 177 71 153 106 74 46
346 357 0 2 5 6 6 5 4 0 359 351 342 31 19 357 8 50 74 153 192 209 198 330 73 23 26 335 34 58 22 347 340 30 289 196 97 16 315 4 34 91 144 73 1 134 279
337 345 353 357 0 4 5 5 3 359 357 352 36 55 359 6 18 49 98 204 212 247 205 132 141 72 63 14 28 12 347 35 16 328 41 33 98 289 10 37 173 30 25 47 112 112 162
329 334 346 351 357 1 2 3 4 0 358 2 73 30 357 46 48 39 55 12 323 303 325 285 130 144 137 83 84 88 8 312 348 322 57 356 119 113 134 157 237 194 166 137 113 224 70
319 334 338 344 351 355 358 2 4 2 2 350 41 276 0 17 75 28 326 14 35 347 338 341 333 324 253 148 122 157 165 251 13 45 60 357 30 42 351 7 3 237 201 127 104 91 196
316 333 334 337 342 349 354 359 4 4 2 10 54 14 344 50 108 114 64 24 351 10 331 346 323 348 355 3 341 158 153 216 11 108 89 98 56 136 187 213 154 247 215 183 137 131 194
302 320 332 335 337 346 351 356 2 4 3 31 32 283 206 328 2 108 128 151 105 359 55 31 348 8 358 345 343 334 329 149 111 280 50 100 147 154 234 248 267 258 249 190 206 210 198
283 296 311 322 332 340 348 355 1 7 7 63 90 100 11 79 316 31 357 185 162 197 142 19 175 4 76 138 158 315 2 351 335 9 86 6 184 131 276 177 176 229 221 216 228 254 270
277 286 299 306 321 330 342 353 360 9 19 82 58 76 104 295 61 90 230 186 205 166 166 163 175 77 351 251 193 185 155 158 195 27 359 13 105 61 279 351 330 298 260 182 187 203 190
272 278 283 288 303 318 329 346 356 7 24 59 67 105 81 285 193 214 196 201 202 211 221 279 133 149 178 221 204 87 53 52 72 77 123 132 91 31 292 343 341 244 285 199 205 249 231
269 277 278 280 280 293 304 326 342 355 11 28 42 104 121 271 228 290 208 192 118 10 228 239 230 285 86 61 47 359 340 17 53 26 33 93 127 76 118 246 295 33 17 123 113 264 206
261 271 274 277 276 277 284 298 314 332 349 8 33 39 106 121 237 161 157 184 192 212 331 224 353 129 59 81 94 192 245 242 246 107 32 67 60 121 138 174 244 239 303 40 142 303 298
282 278 266 269 278 270 270 272 280 295 308 315 331 29 67 166 259 151 181 183 134 116 176 292 186 159 39 120 170 190 234 177 221 190 166 127 121 192 190 243 285 250 259 199 74 264 193
300 301 287 279 268 271 263 262 262 265 268 270 277 224 348 222 278 207 210 156 138 150 164 195 61 337 60 162 178 218 199 229 276 173 180 173 151 192 132 203 275 185 70 201 219 263 244
325 312 301 305 274 274 263 253 251 250 248 244 243 236 221 210 241 272 262 250 220 196 146 166 195 164 192 98 211 116 225 97 174 260 7 238 194 184 189 211 231 212 215 238 187 225 197